Weather Roundup
Issued by NWS Chicago, IL

Home | Current Version | Previous Version | Text Only | Print | Product List | Glossary Off
Versions: 1 2 3 4 5 6 7 8 9 10 11 12 13 14 15 16 17 18 19 20 21 22 23 24 25 26 27 28 29 30 31 32 33 34 35 36 37 38 39 40 41 42 43 44 45 46 47 48 49 50

000
NZUS59 KLOT 260906
HRRLOT

CHICAGO AREA WEATHER ROUNDUP
NATIONAL WEATHER SERVICE CHICAGO/ROMEOVILLE IL
300 AM CST MON JAN 26 2015

NOTE: "FAIR" INDICATES FEW OR NO CLOUDS BELOW 12,000 FEET WITH NO
SIGNIFICANT WEATHER AND/OR OBSTRUCTIONS TO VISIBILITY.

* THESE STATIONS ARE NOT UNDER NWS QUALITY CONTROL. THEY ALSO MAY NOT
  REPORT WEATHER SUCH AS PRECIPITATION OR FOG.

ILZ005-006-012>014-019>023-261000-
NORTHEAST ILLINOIS

CITY           SKY/WX    TMP DP  RH WIND       PRES   REMARKS
OHARE          MOCLDY    23  15  71 E9        29.97F WCI  13
MIDWAY         MOCLDY    25  16  68 NE6       29.98F WCI  18
AURORA         PTCLDY    16  11  80 NW8       30.00S WCI   5
LANSING*       PTCLDY    21  15  78 E3        29.96F
JOLIET*        PTCLDY    18  14  84 NW3       29.99F
WAUKEGAN       MOCLDY    20  13  74 NE6       29.97F WCI  12
DUPAGE AIRPORT CLOUDY    16  12  84 NW6       29.98F WCI   7
WHEELING       CLOUDY    23  15  71 E6        29.99F WCI  16
KANKAKEE*      CLOUDY    24  19  78 N6        29.97F WCI  17
MORRIS*        PTCLDY    18  15  87 NW5       29.99S WCI  11
LEWIS AIRPORT* MOCLDY    18  15  86 NW7       29.98S WCI   9
NORTHERLY IS     N/A     23  15  71 NE6         N/A  WCI  16
$$

WIZ051-052-058>065-066-070>072-261000-
SOUTHEAST WISCONSIN

CITY           SKY/WX    TMP DP  RH WIND       PRES   REMARKS
MILWAUKEE      CLOUDY    17  11  77 NW7       29.99F WCI   8
KENOSHA*       MOCLDY    16  12  84 W7        29.98F WCI   6
RACINE*        MOCLDY    22  14  71 E5        30.00F WCI  16
BURLINGTON     CLEAR     10   8  89 W5        29.99S WCI   2
WAUKESHA         N/A     10   9  92 W5        29.99S WCI   2
WEST BEND      PTCLDY    12   9  85 CALM      29.97F
$$

INZ001>003-010>013-019-020-261000-
NORTHWEST INDIANA

CITY           SKY/WX    TMP DP  RH WIND       PRES   REMARKS
GARY*          CLEAR     22  12  65 NE5       29.97F WCI  16
MICHIGAN CITY* NOT AVBL
RENSSELAER*    NOT AVBL
VALPARAISO     CLEAR     14   9  80 CALM      29.96F
$$

LMZ740>746-261000-
SOUTHERN LAKE MICHIGAN

STATION/POSITION TIME  SKY/WX   TEMP WIND        PRES    VSBY
                                AIR  DIR/SP/G
                 (UTC)          (F)  (DEG/KT/KT) (MB)    (MI)
HARRISON CRIB    0900            23   40/  7/ 11   N/A
BURNHAM HARBOR   0900            23   40/  8/ 11   N/A
CALUMET HARBOR   0900            23   40/  6/ 10   N/A
BURNS HARBOR     NOT AVBL
MICHIGAN CITY    0900            17   60/  7/  8   N/A
$$

ABBREVIATIONS USED IN REMARKS
   TC - TEMPERATURE IN CELSIUS
  WCI - WIND CHILL INDEX
   HX - HEAT INDEX
  VSB - VISIBILITY
$$



USA.gov is the U.S. government's official web portal to all federal, state and local government web resources and services.